SCP
0 0 1 1 1 0 0 0 0 0 0 0 0 0 0 0 0 1 1 1 2 2 2 2 2 3 3 3 3 3 3 2 2 1 1 2 2 2 1 1 1 1 1 1 1 1 1 1 1
0 0 1 1 0 0 0 0 0 0 0 0 0 0 0 0 0 1 1 1 2 2 2 2 2 3 3 3 3 3 3 2 2 1 1 2 2 2 1 1 1 1 1 1 1 1 1 1 1
0 0 0 0 0 0 0 0 0 0 0 0 0 0 0 0 0 1 1 1 2 2 2 2 3 3 4 4 3 3 2 2 2 2 2 2 2 2 2 1 1 1 1 1 1 1 1 1 1
0 0 0 0 0 0 0 0 0 0 0 0 0 0 1 1 1 1 1 1 2 2 2 2 3 4 4 4 4 3 3 2 2 2 2 2 2 2 2 2 2 1 1 1 1 1 1 1 1
1 0 0 0 0 0 0 0 0 0 0 0 0 1 1 1 1 1 1 1 2 2 2 2 3 4 4 4 4 3 3 3 2 2 2 2 2 2 2 2 2 2 1 1 1 1 1 1 1
1 0 0 0 0 0 0 0 0 0 0 0 1 1 1 1 1 1 1 2 2 2 2 2 3 4 4 4 4 3 3 2 2 2 2 2 2 2 2 2 2 2 1 1 1 1 1 1 1
1 0 0 0 0 0 0 0 0 0 0 0 1 1 1 1 2 2 2 2 2 2 2 3 3 3 3 3 3 3 3 2 2 2 2 3 3 2 2 2 2 2 2 2 2 2 1 1 1
1 0 0 0 0 0 0 0 0 0 0 0 1 1 2 2 2 2 2 2 2 2 2 3 2 2 2 3 3 3 3 2 2 2 3 3 3 2 2 2 2 2 2 2 2 2 2 1 1
1 0 0 0 0 0 0 0 0 0 0 0 1 2 2 2 2 2 2 2 2 2 2 2 2 2 2 2 3 3 3 2 2 2 3 3 2 2 1 1 1 2 2 2 2 2 2 1 1
0 0 0 0 0 0 0 0 0 0 0 0 1 2 3 2 2 2 2 2 2 1 2 2 3 2 2 2 3 3 3 2 2 2 2 2 2 2 1 1 1 2 2 2 2 2 2 1 1
0 0 0 0 0 0 0 0 0 0 0 0 0 1 2 2 2 3 3 2 2 2 2 2 3 3 2 3 3 3 3 2 2 2 2 2 2 2 2 2 2 2 3 3 2 2 1 1 1
0 0 0 0 0 0 0 0 0 0 0 0 0 1 1 2 2 3 3 3 2 2 2 2 2 2 3 3 4 4 3 3 2 2 2 2 2 2 2 3 3 3 3 3 2 2 1 1 1
0 0 0 0 0 0 0 0 0 0 0 0 0 1 1 2 2 3 3 3 3 3 3 2 2 2 3 4 4 4 3 3 3 3 2 2 2 2 3 3 3 3 3 3 2 2 1 1 1
0 0 0 0 0 0 0 0 0 0 0 0 0 0 1 1 2 2 3 3 3 3 3 3 2 2 3 4 4 4 3 3 3 2 2 2 2 2 2 3 3 3 3 3 2 2 1 1 1
0 0 0 0 0 0 0 0 0 0 0 0 0 0 1 1 1 2 2 2 3 3 3 3 2 3 3 4 4 4 3 3 2 2 1 1 2 2 2 2 3 3 3 2 2 1 1 1 1
0 0 0 0 0 0 0 0 0 0 0 0 0 0 0 1 1 1 2 2 2 3 3 3 2 2 3 3 3 3 3 3 2 1 1 1 1 1 1 2 2 2 2 2 2 1 1 1 1
0 0 0 0 0 0 0 0 0 0 0 0 0 0 0 0 1 1 1 1 1 2 3 2 2 2 2 2 2 2 2 2 2 1 1 0 0 0 1 1 1 1 1 1 1 1 0 0 0
0 0 0 0 0 0 0 0 0 0 0 0 0 0 0 0 0 0 0 0 1 1 2 2 2 2 1 1 1 1 1 1 1 1 1 0 0 0 0 1 1 0 0 1 0 0 0 0 0
0 0 0 0 0 0 0 0 0 0 0 0 0 0 0 0 0 0 0 0 0 0 1 2 2 2 2 1 1 1 1 1 1 1 0 0 0 0 0 1 0 0 0 0 0 0 0 0 0
0 0 0 0 0 0 0 0 0 0 0 0 0 0 0 0 0 0 0 0 0 0 0 1 2 2 2 1 1 1 1 1 1 1 0 0 0 0 0 0 0 0 0 0 0 0 0 0 0
0 0 0 0 0 0 0 0 0 0 0 0 0 0 0 0 0 0 0 0 0 0 0 0 1 1 1 1 1 1 1 1 1 1 1 0 0 0 0 0 0 0 0 0 0 0 0 0 0
0 0 0 0 0 0 0 0 0 0 0 0 0 0 0 0 0 0 0 0 0 0 0 0 0 0 0 0 1 0 0 0 1 1 1 0 0 0 0 0 0 0 0 0 0 0 0 0 0
0 0 0 0 0 0 0 0 0 0 0 0 0 0 0 0 0 0 0 0 0 0 0 0 0 0 0 0 0 0 0 0 0 0 1 0 0 0 0 0 1 0 0 0 1 0 0 0 0
0 0 0 0 0 0 0 0 0 0 0 0 0 0 0 0 0 0 0 0 0 0 0 0 0 0 0 0 0 0 0 0 0 0 0 0 0 0 0 0 1 0 0 0 0 0 0 0 0
0 0 0 0 0 0 0 0 0 0 0 0 0 0 0 0 0 0 0 0 0 0 0 0 0 0 0 0 0 0 0 0 0 0 0 0 0 0 0 1 1 0 0 0 0 0 0 0 0
0 0 0 0 0 0 0 0 0 0 0 0 0 0 0 0 0 0 0 0 0 0 0 0 0 0 0 0 0 0 0 0 0 0 0 0 0 0 0 1 1 0 0 0 0 0 0 0 0
0 0 0 0 0 0 0 0 0 0 0 0 0 0 0 0 0 0 0 0 0 0 0 0 0 0 0 0 0 0 0 0 0 0 0 0 0 0 1 1 1 0 0 0 0 0 0 0 0
0 0 0 0 0 0 0 0 0 0 0 0 0 0 0 0 0 0 0 0 0 0 0 0 0 0 0 0 0 0 0 0 0 0 0 0 0 0 1 1 1 0 0 0 0 0 0 0 0
0 0 0 0 0 0 0 0 0 0 0 0 0 0 0 0 0 0 0 0 0 0 0 0 0 0 0 0 0 0 0 0 0 0 0 0 0 0 0 0 0 0 1 1 1 0 0 0 0
0 0 0 0 0 0 0 0 0 0 0 0 0 0 0 0 0 0 0 0 0 0 0 0 0 0 0 0 0 0 0 0 0 0 0 0 0 0 0 0 0 0 1 1 1 1 0 0 0
Wind_Speed
11 9 6 2 3 5 9 5 3 1 1 2 5 3 3 4 4 6 3 4 7 8 8 8 8 7 7 7 7 7 7 6 6 6 6 6 6 6 6 6 7 7 7 7 7 7 7 8 7
9 7 3 3 4 7 6 5 3 1 3 2 2 2 2 5 6 7 4 5 7 7 7 7 8 7 7 7 7 6 6 6 5 6 5 5 5 5 5 5 6 6 6 6 6 6 6 6 6
9 6 3 3 6 7 3 2 3 3 2 1 1 3 3 4 5 5 4 4 6 7 7 7 8 7 7 6 6 6 6 6 5 4 4 5 5 4 4 5 5 5 5 5 5 5 5 5 5
4 3 4 5 10 7 3 1 3 3 2 1 2 3 4 5 4 5 5 5 6 6 7 7 7 7 7 6 6 6 5 5 5 4 3 4 4 4 4 4 4 4 4 4 4 4 4 4 4
3 3 5 7 11 5 2 1 1 1 2 2 1 2 4 4 7 7 5 4 6 6 6 7 7 6 6 6 5 5 5 5 5 4 4 3 3 3 4 4 4 3 4 3 3 3 3 3 2
3 3 6 9 8 5 2 1 2 1 0 1 1 1 4 4 6 5 4 4 5 6 6 6 6 6 5 5 5 4 4 4 4 4 4 4 2 2 3 3 3 3 3 3 2 2 1 1 1
3 4 7 8 7 4 2 1 2 2 1 1 1 1 5 4 5 4 4 3 5 6 5 5 4 4 4 4 4 4 3 3 3 3 3 3 3 2 2 2 2 2 2 2 1 1 1 1 1
3 4 7 8 7 4 1 1 2 2 2 2 2 0 4 4 4 4 4 4 4 5 4 4 3 3 2 2 3 3 2 2 2 2 3 3 2 2 1 1 1 1 1 1 1 1 1 1 2
3 4 7 5 4 1 1 1 1 1 1 1 2 3 5 7 5 3 3 3 3 3 3 3 3 2 2 2 2 2 1 1 1 1 2 2 1 1 1 0 0 1 0 0 1 1 1 2 2
3 5 6 3 3 3 1 2 1 1 2 2 1 4 6 5 4 3 3 3 3 2 2 2 2 2 1 1 2 2 1 1 1 1 1 0 0 1 1 1 1 1 1 1 1 1 1 1 2
4 5 4 4 4 4 4 3 2 3 4 3 1 5 6 4 4 3 2 2 2 2 2 2 2 1 1 1 0 1 1 1 0 1 0 1 1 1 1 1 0 1 1 1 1 1 1 1 1
5 6 5 4 3 3 4 3 3 4 3 2 1 3 5 5 4 3 3 2 2 2 2 2 1 1 1 0 0 1 1 1 0 1 0 1 1 1 0 0 1 1 1 1 1 1 1 2 2
7 6 5 4 4 4 4 5 4 5 3 2 1 1 2 3 3 2 2 1 2 2 2 2 2 1 1 0 0 0 0 0 0 0 0 0 0 1 1 1 1 1 1 1 1 1 1 2 2
3 4 5 5 5 4 5 6 5 5 2 2 2 2 3 3 2 2 2 1 1 2 2 1 1 1 1 1 0 0 0 0 0 0 0 0 0 0 1 1 1 1 1 1 1 2 1 2 2
2 4 6 7 6 4 3 7 8 4 2 3 3 3 3 3 2 2 1 1 1 2 2 1 0 1 1 1 0 0 0 0 0 0 1 0 0 0 1 1 1 1 1 1 1 2 1 2 2
4 4 5 4 5 4 4 8 4 3 3 4 4 3 2 3 2 1 1 1 1 2 2 1 0 0 0 1 0 0 0 0 0 0 0 0 1 0 1 1 1 1 1 1 1 1 1 1 2
3 4 5 4 4 3 5 7 2 3 4 4 3 2 2 2 2 2 2 2 1 2 2 1 1 1 0 0 0 0 0 0 0 0 0 0 1 1 0 1 1 1 1 1 2 1 1 1 2
3 4 5 4 2 3 6 8 4 3 4 4 3 3 2 2 1 1 2 2 2 2 2 1 1 1 0 0 0 0 0 0 0 0 0 1 1 1 0 1 1 1 1 1 1 2 2 2 2
5 5 7 5 1 4 7 9 7 3 4 4 3 3 2 2 1 1 2 2 2 2 1 1 1 1 1 0 0 0 1 1 1 0 1 1 1 0 1 1 1 1 1 1 1 1 2 2 1
6 7 6 4 1 3 6 10 8 5 5 4 4 4 2 1 1 1 2 2 1 1 1 1 1 0 0 0 0 1 1 1 1 1 1 1 1 1 1 1 1 1 1 1 1 1 1 2 1
5 5 4 5 5 5 6 8 7 5 4 3 2 1 1 1 1 1 1 1 1 1 1 1 1 0 1 1 0 1 1 1 1 1 1 1 2 2 1 2 1 2 2 2 2 2 1 2 2
5 3 4 4 3 3 2 5 5 5 5 4 3 1 1 1 1 1 1 0 0 0 0 1 1 0 1 1 0 1 1 1 2 1 1 2 2 2 2 2 2 2 2 2 2 2 2 2 2
3 3 4 5 4 4 4 5 6 3 4 5 4 3 1 1 1 1 1 1 1 1 0 0 0 1 0 0 1 1 2 2 1 1 2 2 2 2 2 2 2 2 2 2 2 2 2 2 2
2 3 3 3 2 5 7 6 5 3 4 4 4 3 2 1 1 1 1 1 1 1 0 0 0 1 0 0 1 1 2 2 2 2 2 2 1 2 2 2 2 2 2 2 2 3 3 3 3
2 1 1 1 3 6 3 4 5 1 1 2 4 4 2 1 1 0 1 1 1 1 0 0 0 1 1 1 1 1 2 2 2 2 2 2 2 2 2 2 2 2 2 3 2 2 3 3 3
2 2 2 3 3 2 1 5 2 1 3 3 3 3 2 1 1 1 1 1 1 1 1 1 1 1 1 1 1 1 1 1 1 2 2 2 2 2 2 2 2 2 2 3 2 2 3 2 3
2 2 1 1 3 3 5 3 1 1 3 2 2 2 2 0 1 1 1 1 1 1 1 1 1 1 1 1 1 1 1 1 2 2 2 1 2 2 3 3 3 3 2 3 3 2 3 2 3
2 1 1 2 2 4 4 4 3 3 2 1 1 1 1 1 0 1 1 1 1 1 1 1 1 1 1 1 1 1 1 1 1 1 2 2 2 2 3 3 3 3 2 2 2 2 2 2 3
2 1 2 3 3 3 4 3 1 3 3 3 2 2 2 2 1 0 0 1 1 1 1 1 1 1 1 1 1 1 1 1 2 2 2 2 2 2 3 3 3 3 3 2 2 2 2 3 3
2 2 3 2 3 3 3 4 1 2 2 2 1 2 1 2 1 0 0 1 1 1 1 1 1 1 1 1 1 1 1 1 2 2 2 2 2 3 3 3 3 3 3 2 3 3 3 3 3
Wind_Direction
300 272 250 247 237 233 239 233 239 182 76 36 15 12 31 27 26 103 147 91 93 101 109 102 88 85 80 75 74 72 74 79 80 79 80 77 78 81 82 80 78 74 70 67 70 74 74 75 75
292 278 254 239 236 235 231 214 218 57 77 70 27 1 43 77 76 99 111 93 99 101 103 100 92 87 83 78 74 75 70 72 77 78 77 78 76 77 80 80 78 72 68 64 63 70 73 73 75
275 265 247 234 234 239 224 115 116 108 104 123 95 8 24 69 89 100 110 110 99 98 99 98 95 90 85 81 78 75 74 68 69 77 76 74 74 73 79 79 78 73 68 65 62 66 69 70 73
263 236 242 245 245 248 265 67 105 129 124 95 134 109 77 41 69 104 113 113 103 99 100 102 97 93 88 80 75 73 75 69 64 69 77 75 72 71 72 75 73 73 71 68 63 67 67 66 72
242 240 232 238 245 249 280 358 341 217 165 158 201 118 98 75 89 101 112 111 102 96 100 109 97 94 90 84 79 75 75 71 65 60 56 67 74 72 69 75 74 73 73 71 64 67 68 62 68
248 238 237 237 239 224 224 284 268 278 155 136 143 115 108 106 96 107 109 103 102 99 100 113 103 97 93 88 84 77 75 74 66 57 51 44 55 71 73 77 78 76 75 67 61 61 60 47 49
257 251 250 257 255 235 206 263 293 308 288 33 48 121 130 121 110 119 118 103 95 98 102 111 124 112 99 89 82 77 76 73 64 53 46 39 32 52 78 72 85 82 74 62 48 29 15 359 316
277 275 255 252 252 244 201 222 293 332 324 3 0 83 129 136 123 123 119 107 96 96 99 112 122 123 127 119 100 83 78 72 59 46 33 25 14 22 34 45 94 90 71 50 20 329 314 318 295
260 251 249 256 267 262 96 264 267 40 310 319 41 46 96 119 124 128 125 118 107 103 103 108 111 110 118 141 126 123 104 91 66 49 29 18 358 2 324 270 202 167 165 323 288 303 295 294 279
224 239 246 293 316 312 304 290 283 250 249 244 136 103 109 123 141 155 158 150 136 135 120 102 106 103 96 113 136 162 156 148 186 116 91 296 346 322 332 299 237 211 258 288 283 295 286 276 251
222 242 264 294 333 333 302 298 293 257 257 277 201 147 146 158 168 174 183 162 151 143 117 101 97 105 99 69 144 155 138 150 182 92 24 342 26 356 359 3 267 210 206 207 258 249 246 256 263
238 251 263 275 315 308 297 297 279 264 277 328 341 141 156 169 182 188 197 179 148 139 142 119 113 117 112 103 108 156 143 158 179 156 1 30 32 334 325 291 286 224 203 217 247 253 250 261 263
237 246 257 261 268 273 279 270 275 264 285 330 60 104 165 179 189 187 180 149 140 132 128 128 134 134 130 114 168 53 113 146 179 174 188 87 61 287 291 292 278 269 236 206 252 269 272 277 270
266 262 259 255 246 246 260 264 252 253 247 244 194 209 199 197 193 178 160 156 125 108 113 118 125 131 131 118 157 163 152 216 180 165 222 106 162 260 284 292 281 289 299 260 243 253 263 269 274
279 266 254 236 233 227 260 262 231 223 217 224 218 214 198 186 180 184 158 132 105 95 85 83 150 114 107 97 346 22 157 185 310 199 221 234 252 257 280 283 271 278 298 290 283 274 275 277 287
245 250 249 216 215 205 216 252 225 180 199 230 225 214 208 186 175 149 125 118 104 93 89 73 22 82 89 64 319 315 126 112 263 254 244 269 305 278 290 276 268 272 288 283 271 261 278 288 293
217 244 251 236 208 219 225 254 218 176 201 230 229 217 214 197 179 152 136 126 116 105 101 89 57 45 84 46 328 324 189 184 219 244 265 256 280 270 260 256 248 237 251 273 285 298 287 290 295
244 256 261 250 210 249 250 262 252 213 212 228 228 219 213 214 199 136 113 109 102 87 92 100 62 20 36 147 5 350 349 290 284 253 262 238 242 257 271 239 232 235 233 257 278 287 292 279 281
286 280 273 277 249 259 256 266 263 231 223 222 223 220 216 212 161 117 110 103 104 94 90 104 90 10 26 77 305 308 309 315 310 286 272 258 256 243 264 246 213 225 233 248 261 281 282 286 303
275 279 282 301 304 271 271 269 262 232 229 220 221 218 210 200 147 140 115 101 104 103 82 58 22 333 125 112 265 272 263 259 256 274 280 239 239 249 267 245 216 217 229 247 254 268 274 287 302
265 260 277 295 309 267 276 276 243 223 203 194 204 198 159 139 161 133 110 111 101 78 66 32 345 308 130 92 77 322 320 291 313 298 289 259 238 237 241 242 226 223 211 222 230 220 233 263 280
267 287 288 285 289 275 240 281 251 212 201 199 197 192 178 159 173 147 127 28 72 84 65 29 319 312 113 96 152 243 259 272 272 273 269 271 247 228 229 245 236 225 217 221 238 246 235 229 257
291 317 281 264 262 280 242 253 268 202 217 211 196 189 180 152 162 159 163 234 341 45 73 55 316 321 86 143 217 240 260 260 273 288 282 276 272 245 231 238 233 224 220 217 225 244 241 234 234
311 299 277 247 243 258 226 221 265 223 220 194 184 181 166 148 150 153 151 115 43 32 145 179 286 313 310 242 244 235 254 269 284 295 288 287 285 269 251 246 237 230 226 222 225 234 237 244 243
299 315 316 262 226 244 197 212 246 218 63 144 168 167 148 138 111 64 40 49 33 14 97 136 296 291 294 277 266 253 257 260 258 266 269 289 291 281 265 267 247 238 237 237 232 233 240 236 240
247 238 211 248 263 292 236 233 236 121 79 80 117 130 126 111 84 38 41 30 11 357 357 353 298 283 291 279 275 281 272 265 265 272 270 270 277 277 278 269 269 261 246 248 237 234 237 240 241
233 228 265 275 280 272 246 233 193 79 85 92 101 118 118 97 40 32 32 26 11 7 345 322 309 291 301 297 298 288 293 294 282 282 293 285 283 291 296 289 279 267 251 242 240 239 237 235 240
280 297 123 199 263 267 256 230 224 180 194 182 145 149 166 146 65 9 6 13 15 0 353 344 332 307 298 316 299 301 297 295 297 300 297 293 292 299 302 301 288 275 256 251 250 253 248 240 249
182 198 218 238 248 258 280 271 76 165 174 181 199 191 186 167 181 259 312 4 16 16 23 14 351 329 313 304 297 313 312 309 303 290 288 293 297 298 293 292 286 278 271 257 253 256 252 251 259
218 203 183 207 253 243 264 276 54 100 130 146 187 190 196 163 159 194 176 47 25 18 5 350 335 312 294 295 308 315 307 299 291 290 295 303 301 297 290 287 288 284 282 276 261 261 262 256 259